Weather in Kubovo

Russia / Republic of Karelia     61°57′03″N   37°10′46″E
temp.,
°C
wind,
m/s
gust,
m/s
humid.,
%
clouds,
%
prec.,
mm/h
press.,
hPa
HPBL,
m
20 june, sun
sun2000:00+19nw017735 0.0 101811
03:00+15ssw12880 0.0 101918
06:00+19sw25660 0.0 1018169
09:00+25sw35450 0.0 1017765
12:00+28wsw47370 0.0 10162361
15:00+29wsw57330 0.0 10152438
18:00+29wsw49371 0.0 10152332
21:00+22sw23595 0.0 101553
21 june, mon
mon2100:00+18sw247230 0.0 101567
03:00+17sw267914 0.0 1016107
06:00+20wsw266817 0.0 1016187
09:00+26wsw35485 0.0 1017805
12:00+30wsw45358 0.0 10172038
15:00+31wsw46313 0.0 10162406
18:00+31wsw35343 0.0 10152371
21:00+25sw22600 0.0 101628
22 june, tue
tue2200:00+20sw24670 0.0 101670
03:00+17sw3119229 1.9 1017211
06:00+19sw289175 0.4 1017213
09:00+26wsw34585 0.4 1017517
12:00+31wsw354111 0.0 10171716
15:00+32wsw35355 0.0 10172402
18:00+32wsw2436100 0.0 10161984
21:00+21s4107375 0.0 1016249
23 june, wed
wed2300:00+19ssw238431 0.2 101667
03:00+19sw2887100 0.5 1017166
06:00+21s26876 0.6 1016156
09:00+28sw354873 0.6 1016675
12:00+31sw5737100 0.0 10161899
15:00+32wsw573855 0.0 10152414
18:00+31w410445 0.0 10142015
21:00+25sw27620 0.0 1015185
24 june, thu
thu2400:00+20sw3108294 0.1 1016221
03:00+19sw2792100 0.1 1016161
06:00+21wsw367939 0.0 1016282
09:00+26sw35585 0.1 1016780
12:00+30w35425 0.0 10161761
15:00+31wsw343615 0.0 10152118
18:00+30w343332 0.0 10141962
21:00+24sw01565 0.0 101411